Weather History for KSHL - October, 2012

Change the Weather History Date:

Saturday, October 27, 2012

  Actual Average Record
Temperature  
Mean Temperature 31 °F -  
Max Temperature 41 °F 58 °F 82 °F (1999)
Min Temperature 21 °F 34 °F 12 °F (2001)
Degree Days  
Heating Degree Days 34    
Moisture  
Dew Point 25 °F    
Average Humidity 74    
Maximum Humidity 100    
Minimum Humidity 52    
Precipitation  
Precipitation 0.00 in - - ()
Sea Level Pressure  
Sea Level Pressure 30.31 in    
Wind  
Wind Speed 5 mph (South)    
Max Wind Speed 10 mph    
Max Gust Speed 12 mph    
Visibility 10 miles    
Events      
Averages and records for this station are not official NWS values.
T = Trace of Precipitation, MM = Missing Value Source: NWS Daily Summary

Daily Weather History Graph

Daily Weather History Graph

Search for Another Location

Airport or City:

Trip Planner

Search our weather history database for the weather conditions in past years. The results will help you decide how hot, cold, wet, or windy it might be!

Date:

Astronomy

Oct. 27, 2012 Rise Set
Actual Time 7:52 AM CDT 6:21 PM CDT
Civil Twilight 7:23 AM CDT 6:50 PM CDT
Nautical Twilight 6:49 AM CDT 7:23 PM CDT
Astronomical Twilight 6:16 AM CDT 7:56 PM CDT
Moon 5:09 PM CDT (10/27) 5:46 AM CDT (10/27)
Length of Visible Light 11h 27m
Length of Day
10h 28m
Waxing Gibbous, 96% of the Moon is Illuminated
Oct 27
Waxing Gibbous
Oct 29
Full
Nov 6
Last Quarter
Nov 13
New
Nov 20
First Quarter

Hourly Weather History & Observations

Time (CDT) Temp. Windchill Dew Point Humidity Pressure Visibility Wind Dir Wind Speed Gust Speed Precip Events Conditions
12:15 AM 32.0 °F 26.4 °F 24.8 °F 75% 30.36 in 10.0 mi West 5.8 mph - N/A   Mostly Cloudy
12:35 AM 30.2 °F 24.3 °F 24.8 °F 80% 30.36 in 10.0 mi West 5.8 mph - N/A   Partly Cloudy
12:55 AM 28.4 °F 24.6 °F 24.8 °F 86% 30.36 in 10.0 mi SW 3.5 mph - N/A   Clear
1:15 AM 28.4 °F 23.3 °F 24.8 °F 86% 30.36 in 10.0 mi SW 4.6 mph - N/A   Clear
1:35 AM 28.4 °F - 24.8 °F 86% 30.36 in 10.0 mi Calm Calm - N/A   Clear
1:55 AM 28.4 °F 24.6 °F 24.8 °F 86% 30.35 in 10.0 mi WSW 3.5 mph - N/A   Clear
2:15 AM 26.6 °F 21.2 °F 24.8 °F 93% 30.34 in 10.0 mi SW 4.6 mph - N/A   Clear
2:35 AM 26.6 °F 21.2 °F 23.0 °F 86% 30.35 in 10.0 mi SW 4.6 mph - N/A   Clear
2:55 AM 26.6 °F 21.2 °F 23.0 °F 86% 30.34 in 10.0 mi SW 4.6 mph - N/A   Partly Cloudy
3:35 AM 26.6 °F - 23.0 °F 86% 30.34 in 10.0 mi Calm Calm - N/A   Clear
3:55 AM 24.8 °F - 23.0 °F 93% 30.34 in 10.0 mi Calm Calm - N/A   Clear
4:15 AM 24.8 °F - 23.0 °F 93% 30.34 in 10.0 mi Calm Calm - N/A   Clear
4:35 AM 24.8 °F - 23.0 °F 93% 30.33 in 10.0 mi Calm Calm - N/A   Clear
4:55 AM 24.8 °F - 23.0 °F 93% 30.33 in 10.0 mi Calm Calm - N/A   Clear
5:15 AM 23.0 °F - 23.0 °F 100% 30.33 in 10.0 mi Calm Calm - N/A   Clear
5:35 AM 23.0 °F - 21.2 °F 93% 30.33 in 10.0 mi Calm Calm - N/A   Clear
5:55 AM 23.0 °F - 21.2 °F 93% 30.34 in 10.0 mi Calm Calm - N/A   Clear
6:15 AM 21.2 °F - 21.2 °F 100% 30.34 in 10.0 mi Calm Calm - N/A   Clear
6:55 AM 23.0 °F 18.4 °F 21.2 °F 93% 30.35 in 10.0 mi SE 3.5 mph - N/A   Clear
7:15 AM 21.2 °F 16.4 °F 21.2 °F 100% 30.35 in 10.0 mi South 3.5 mph - N/A   Clear
7:35 AM 23.0 °F 18.4 °F 21.2 °F 93% 30.35 in 10.0 mi South 3.5 mph - N/A   Clear
7:55 AM 21.2 °F - 19.4 °F 93% 30.35 in 10.0 mi Calm Calm - N/A   Clear
8:15 AM 23.0 °F 17.0 °F 19.4 °F 86% 30.36 in 10.0 mi SSE 4.6 mph - N/A   Clear
8:35 AM 24.8 °F - 21.2 °F 86% 30.36 in 10.0 mi Calm Calm - N/A   Clear
8:55 AM 26.6 °F 21.2 °F 23.0 °F 86% 30.36 in 10.0 mi South 4.6 mph - N/A   Clear
9:15 AM 28.4 °F - 24.8 °F 86% 30.37 in 10.0 mi Calm Calm - N/A   Clear
9:35 AM 30.2 °F 23.4 °F 24.8 °F 80% 30.37 in 10.0 mi SSW 6.9 mph - N/A   Clear
9:55 AM 30.2 °F 23.4 °F 24.8 °F 80% 30.37 in 10.0 mi SSW 6.9 mph - N/A   Clear
10:35 AM 33.8 °F 26.4 °F 24.8 °F 70% 30.36 in 10.0 mi SW 9.2 mph - N/A   Clear
10:55 AM 33.8 °F 25.8 °F 24.8 °F 70% 30.36 in 10.0 mi SSW 10.4 mph - N/A   Clear
11:15 AM 35.6 °F 29.2 °F 24.8 °F 65% 30.35 in 10.0 mi SSW 8.1 mph - N/A   Clear
11:35 AM 35.6 °F 29.9 °F 24.8 °F 65% 30.35 in 10.0 mi SSW 6.9 mph - N/A   Clear
11:55 AM 37.4 °F 32.1 °F 23.0 °F 56% 30.35 in 10.0 mi South 6.9 mph - N/A   Clear
12:15 PM 37.4 °F 30.8 °F 21.2 °F 52% 30.34 in 10.0 mi SSW 9.2 mph - N/A   Scattered Clouds
12:35 PM 37.4 °F 32.1 °F 23.0 °F 56% 30.33 in 10.0 mi SSW 6.9 mph - N/A   Mostly Cloudy
12:55 PM 39.2 °F 33.6 °F 23.0 °F 52% 30.32 in 10.0 mi South 8.1 mph - N/A   Scattered Clouds
1:15 PM 39.2 °F 35.9 °F 23.0 °F 52% 30.31 in 10.0 mi WSW 4.6 mph - N/A   Clear
1:35 PM 41.0 °F 36.4 °F 24.8 °F 53% 30.30 in 10.0 mi Variable 6.9 mph - N/A   Clear
1:55 PM 41.0 °F 36.4 °F 24.8 °F 53% 30.29 in 10.0 mi SSW 6.9 mph - N/A   Partly Cloudy
2:15 PM 39.2 °F 35.9 °F 24.8 °F 56% 30.28 in 10.0 mi WSW 4.6 mph 11.5 mph N/A   Partly Cloudy
2:35 PM 41.0 °F 36.4 °F 24.8 °F 53% 30.27 in 10.0 mi South 6.9 mph - N/A   Partly Cloudy
2:55 PM 39.2 °F 33.6 °F 24.8 °F 56% 30.27 in 10.0 mi South 8.1 mph - N/A   Partly Cloudy
3:15 PM 39.2 °F 34.2 °F 24.8 °F 56% 30.26 in 10.0 mi SSW 6.9 mph - N/A   Partly Cloudy
3:35 PM 39.2 °F 35.0 °F 24.8 °F 56% 30.26 in 10.0 mi SSE 5.8 mph - N/A   Clear
3:55 PM 39.2 °F 33.6 °F 24.8 °F 56% 30.26 in 10.0 mi SE 8.1 mph - N/A   Scattered Clouds
4:15 PM 41.0 °F 35.2 °F 26.6 °F 57% 30.26 in 10.0 mi SSE 9.2 mph - N/A   Scattered Clouds
4:35 PM 41.0 °F 35.8 °F 26.6 °F 57% 30.25 in 10.0 mi SSE 8.1 mph - N/A   Scattered Clouds
4:55 PM 39.2 °F 35.0 °F 26.6 °F 61% 30.25 in 10.0 mi SE 5.8 mph - N/A   Partly Cloudy
5:15 PM 39.2 °F 34.2 °F 26.6 °F 61% 30.25 in 8.0 mi SE 6.9 mph - N/A   Clear
5:35 PM 39.2 °F 34.2 °F 26.6 °F 61% 30.24 in 10.0 mi SSE 6.9 mph - N/A   Clear
5:55 PM 39.2 °F 33.0 °F 26.6 °F 61% 30.25 in 10.0 mi South 9.2 mph - N/A   Scattered Clouds
6:15 PM 39.2 °F 33.6 °F 26.6 °F 61% 30.25 in 10.0 mi South 8.1 mph - N/A   Overcast
6:35 PM 37.4 °F 32.8 °F 26.6 °F 65% 30.26 in 10.0 mi South 5.8 mph - N/A   Overcast
6:55 PM 37.4 °F 32.8 °F 26.6 °F 65% 30.26 in 10.0 mi South 5.8 mph - N/A   Overcast
7:15 PM 37.4 °F 32.8 °F 26.6 °F 65% 30.27 in 10.0 mi South 5.8 mph - N/A   Overcast
7:35 PM 37.4 °F 32.1 °F 26.6 °F 65% 30.27 in 10.0 mi SSE 6.9 mph - N/A   Overcast
7:55 PM 37.4 °F 32.1 °F 26.6 °F 65% 30.27 in 10.0 mi SE 6.9 mph - N/A   Overcast
8:15 PM 37.4 °F 31.4 °F 28.4 °F 70% 30.27 in 10.0 mi SE 8.1 mph - N/A   Overcast
8:35 PM 37.4 °F 32.8 °F 28.4 °F 70% 30.27 in 10.0 mi SE 5.8 mph - N/A   Overcast
8:55 PM 35.6 °F 29.9 °F 28.4 °F 75% 30.27 in 10.0 mi SE 6.9 mph - N/A   Overcast
9:15 PM 35.6 °F 30.7 °F 28.4 °F 75% 30.27 in 10.0 mi SE 5.8 mph - N/A   Overcast
9:35 PM 35.6 °F 30.7 °F 28.4 °F 75% 30.28 in 10.0 mi SSE 5.8 mph - N/A   Overcast
9:55 PM 35.6 °F 30.7 °F 28.4 °F 75% 30.28 in 10.0 mi SSE 5.8 mph - N/A   Overcast
10:15 PM 35.6 °F 29.9 °F 28.4 °F 75% 30.28 in 10.0 mi South 6.9 mph - N/A   Overcast
10:35 PM 35.6 °F 31.7 °F 26.6 °F 70% 30.28 in 10.0 mi South 4.6 mph - N/A   Overcast
10:55 PM 33.8 °F 27.7 °F 26.6 °F 75% 30.28 in 9.0 mi SSE 6.9 mph - N/A   Overcast
11:15 PM 32.0 °F 25.6 °F 26.6 °F 80% 30.28 in 10.0 mi SSE 6.9 mph - N/A   Overcast
11:35 PM 33.8 °F 27.0 °F 26.6 °F 75% 30.27 in 10.0 mi SSE 8.1 mph - N/A   Overcast
11:55 PM 33.8 °F 27.0 °F 28.4 °F 81% 30.28 in 10.0 mi SSE 8.1 mph - N/A   Overcast